Location: Brunembert
(50.7122°N, 1.8935°E)
Time: 03:49:18
(UTC+00:00)

Spot 2 Rocket - Pass Details

Date: 22 April 2021
Orbit: 756 x 773 km, 98.5° (Epoch: 06 May)

Event Time Altitude Azimuth Distance (km) Brightness Sun altitude
Exits shadow 20:32:07 19° 139° (SE) 1,749 4.7 -13.5°
Maximum altitude 20:35:35 54° 69° (ENE) 925 3.7 -13.9°
Drops below altitude 10° 20:40:32 10° 353° (N) 2,309 6.7 -14.5°
Sets 20:42:52 0° 349° (N) 3,237 7.7 -14.7°
